Flag for South Africa Weather past 2 weeks in Vereeniging, South Africa

Now
59 °F

Cool.


Feels Like: 58 °F
Forecast: 55 / 74 °F
Wind: 7 mph from Southwest

Location: Vereeniging

Current Time: Oct 25, 2014 at 8:24:53 PM

Latest Report: Oct 25, 2014 at 8:00 PM


Visibility: N/A

Pressure: 30.24 "Hg

Humidity: 82%

Dew point: 54 °F

Location of VereenigingLocation

Historic Weather in Vereeniging — Graph

°F

Vereeniging temperature yesterday

Maximum temperature yesterday: 84 °F (at 3:00 PM)
Minimum temperature yesterday: 55 °F (at 4:00 AM)
Average temperature yesterday: 69 °F

Past Weeks' High & Low Weather Summary

 TemperatureHumidityPressure
High86 °F (Oct 13, 2:00 PM)88% (Oct 11, 12:00 AM)30.30 "Hg (Oct 11, 12:00 AM)
Low41 °F (Oct 18, 5:00 AM)5% (Oct 13, 3:00 PM)29.74 "Hg (Oct 16, 3:00 PM)
Average66 °F45%30.13 "Hg
* Reported Oct 10 7:00 PM — Oct 25 7:00 PM, Vereeniging, Weather by CustomWeather, © 2014

Note: Actual official high and low records may vary slightly from our data, if they occured in-between our weather recording intervals... More about our weather records

Advertising

Vereeniging weather history for previous 24 hours

 ConditionsComfort  
Time TempWeatherWind HumidityBarometerVisibility
7:00 PM
Oct 25
64 °FMild.8 mph60%30.09 "HgN/A
6:00 PM66 °FMild.8 mph52%30.07 "HgN/A
5:00 PM63 °FMild.17 mph64%30.07 "HgN/A
4:00 PM77 °FPleasantly warm.9 mph24%30.01 "HgN/A
3:00 PM81 °FPleasantly warm.13 mph24%30.04 "HgN/A
2:00 PM81 °FPleasantly warm.9 mph24%30.07 "HgN/A
1:00 PM81 °FPleasantly warm.8 mph26%30.09 "HgN/A
12:00 PM81 °FPleasantly warm.10 mph26%30.12 "HgN/A
11:00 AM77 °FPleasantly warm.14 mph34%30.12 "HgN/A
10:00 AM73 °FMild.10 mph41%30.15 "HgN/A
9:00 AM64 °FMild.6 mph60%30.18 "HgN/A
8:00 AM63 °FMild.9 mph64%30.15 "HgN/A
7:00 AM59 °FCool.6 mph72%30.15 "HgN/A
6:00 AM57 °FCool.5 mph72%30.15 "HgN/A
5:00 AM55 °FCool.7 mph77%30.12 "HgN/A
4:00 AM57 °FCool.5 mph72%30.12 "HgN/A
3:00 AM59 °FCool.12 mph68%30.09 "HgN/A
1:00 AM61 °FRefreshingly cool.15 mph59%30.12 "HgN/A
12:00 AM61 °FCool.3 mph63%30.12 "HgN/A
11:00 PM
Oct 24
63 °FMild.8 mph56%30.15 "HgN/A
Weather by CustomWeather, © 2014

See weather overviewHow to use our weather pages